Retour au catalogue

KSLV-II R/B

ActifSSO
NORAD 56750·ROCKET BODY·🇰🇷 South Korea

Lancé May 25, 2023 depuis Naro Space Center

Loading…

Prochains Passages (prochaines 24 heures)

TLE

FraisSource: Space-Track

Époque: Sep 13, 2026, 14:01 UTC

1 56750U 23072H   26256.58466926  .00006153  00000-0  17796-3 0  9992
2 56750  97.4794 104.6732 0024291  10.3824 349.7916 15.35707471183959

Suivez KSLV-II R/B en temps réel avec AllMySat

Download on the App Store